Flag for Germany Weather past 2 weeks in Meiningen, Thuringia, Germany

Now
50 °F

Overcast.


Feels Like: 50 °F
Forecast: 46 / 67 °F
Wind: 1 mph from Southwest

Location: Meiningen

Current Time: May 23, 2015 at 5:28:40 AM

Latest Report: May 23, 2015 at 4:00 AM


Visibility: 16 mi

Pressure: 30.18 "Hg

Humidity: 74%

Dew point: 42 °F

Location of MeiningenLocation

Historic Weather in Meiningen — Graph

°F

Meiningen temperature yesterday

Maximum temperature yesterday: 61 °F (at 4:00 PM)
Minimum temperature yesterday: 37 °F (at 6:00 AM)
Average temperature yesterday: 52 °F

Past Weeks' High & Low Weather Summary

 TemperatureHumidityPressure
High79 °F (May 12, 4:00 PM)94% (May 21, 3:00 AM)30.38 "Hg (May 21, 3:00 AM)
Low37 °F (May 22, 6:00 AM)24% (May 15, 4:00 PM)29.67 "Hg (May 18, 8:00 PM)
Average55 °F59%30.08 "Hg
* Reported May 8 4:00 AM — May 23 4:00 AM, Meiningen, Weather by CustomWeather, © 2015

Note: Actual official high and low records may vary slightly from our data, if they occured in-between our weather recording intervals... More about our weather records

Advertising

Meiningen weather history for previous 24 hours

 ConditionsComfort  
Time TempWeatherWind HumidityBarometerVisibility
4:00 AM
Sat, May 23
50 °FOvercast.1 mph74%30.18 "Hg16 mi
3:00 AM51 °FOvercast.1 mph71%30.18 "Hg17 mi
2:00 AM51 °FOvercast.1 mph69%30.19 "Hg16 mi
1:00 AM53 °FOvercast.1 mph61%30.20 "Hg19 mi
12:00 AM55 °FOvercast.1 mph57%30.20 "Hg19 mi
10:00 PM
Fri, May 22
56 °FOvercast.1 mph52%30.20 "Hg22 mi
9:00 PM58 °FOvercast.2 mph50%30.19 "Hg17 mi
8:00 PM59 °FOvercast.5 mph45%30.18 "Hg22 mi
7:00 PM60 °FOvercast.2 mph44%30.18 "Hg25 mi
6:00 PM60 °FOvercast.2 mph42%30.20 "Hg28 mi
5:00 PM61 °FOvercast.2 mph40%30.21 "Hg31 mi
4:00 PM61 °FOvercast.2 mph40%30.23 "Hg25 mi
3:00 PM60 °FOvercast.2 mph43%30.24 "Hg28 mi
2:00 PM59 °FOvercast.2 mph43%30.26 "Hg28 mi
1:00 PM60 °FPartly sunny.2 mph42%30.27 "Hg22 mi
12:00 PM59 °FPassing clouds.3 mph43%30.30 "Hg19 mi
10:00 AM56 °FSunny.3 mph48%30.32 "Hg22 mi
9:00 AM51 °FSunny.2 mph60%30.35 "Hg22 mi
8:00 AM45 °FHaze.1 mph74%30.36 "Hg19 mi
7:00 AM43 °FSunny.1 mph78%30.37 "Hg19 mi
6:00 AM37 °FOvercast.1 mph87%30.38 "Hg18 mi
Weather by CustomWeather, © 2015

See weather overviewHow to use our weather pages